{"data":{"norad_id":52322,"epoch":"2026-09-20T23:06:34.743168Z","epoch_age_seconds":84300,"freshness":"FRESH","line1":"1 52322U 22043C   26263.96290212  .00002632  00000+0  13585-3 0  9992","line2":"2 52322  97.3320 333.6808 0002288  42.3114 317.8296 15.17164047244097","mean_motion":15.17164047,"eccentricity":0.0002288,"inclination_deg":97.332,"raan_deg":333.6808,"arg_perigee_deg":42.3114,"mean_anomaly_deg":317.8296,"bstar":0.00013585,"rev_number":24409,"period_min":94.913928579274,"perigee_km":512.83949274676,"apogee_km":515.99352523247,"semimajor_km":6892.5535089896,"source":"CELESTRAK","updated_at":"2026-09-21T09:00:08.532211Z"}}